Weather in Velikie Luky

Russia / Pskov Oblast     56°20′32″N   30°31′19″E
temp.,
°C
wind,
m/s
gust,
m/s
humid.,
%
clouds,
%
prec.,
mm/h
press.,
hPa
HPBL,
m
13 august, sat
sat1300:00+15n11795 0.0 102411
03:00+14e01832 0.0 102411
06:00+13ese11815 0.0 102410
09:00+20ene116244 0.0 1024239
12:00+24ene224916 0.0 1023928
15:00+26ne234218 0.0 10211430
18:00+26nne135180 0.0 1020951
21:00+19ene2274100 0.0 102013
14 august, sun
sun1400:00+17ese1171100 0.0 102011
03:00+15ese227639 0.0 102011
06:00+14e128385 0.0 102012
09:00+20e236269 0.0 1020244
12:00+25e344452 0.0 10201084
15:00+27e233858 0.0 10181449
18:00+26ene245388 0.0 1018282
21:00+21e226993 0.0 101832
15 august, mon
mon1500:00+18ese238137 0.2 101844
03:00+17se238897 0.3 101849
06:00+17se238970 0.0 101946
09:00+22ese356852 0.0 1019337
12:00+27ese454776 0.0 10181207
15:00+29ese45399 0.0 10171894
18:00+28ese36485 0.0 1017470
21:00+21ese37671 0.0 1018105
16 august, tue
tue1600:00+19ese38675 0.0 1018135
03:00+18ese36735 0.0 1018106
06:00+17ese398035 0.0 1018174
09:00+23ese485965 0.0 1018330
12:00+27se5745100 0.0 1017903
15:00+28se5644100 0.0 10171292
18:00+25sse5955100 0.0 1018599
21:00+22ese3958100 0.0 1018218
17 august, wed
wed1700:00+22se31059100 0.0 1018306
03:00+19se247067 0.0 101880
06:00+17ese35778 0.0 1018102
09:00+22e365547 0.0 1017315
12:00+27e35425 0.0 1017947
15:00+29ese34385 0.0 10161588
18:00+28ese24473 0.0 1015323
21:00+21s23695 0.0 101637